Location: Johnson City
(36.3130°N, 82.3540°W)
Time: 20:25:24
(UTC-05:00)

X-37B - Visible Passes

Search period start: 30 November 2021 00:00
Search period end: 10 December 2021 00:00
Orbit: 330 x 341 km, 45.0° (Epoch: 20 November)

Date Brightness Start Highest point End Pass type
(mag) Time Alt. Az. Time Alt. Az. Time Alt. Az.
03 Dec 2.4 18:33:43 10° S 18:35:19 16° SSE 18:35:19 16° SSE visible
04 Dec 1.4 18:53:05 10° SW 18:55:10 38° SSW 18:55:10 38° SSW visible
05 Dec 2.5 17:39:10 10° S 17:41:02 16° SE 17:42:55 10° E visible
05 Dec 2.7 19:13:30 10° WSW 19:14:56 25° W 19:14:56 25° W visible
06 Dec 0.7 17:58:31 10° SW 18:01:18 49° SE 18:03:24 15° ENE visible
06 Dec 3.9 19:34:29 10° WNW 19:34:38 11° WNW 19:34:38 11° WNW visible
07 Dec 0.8 18:18:55 10° WSW 18:21:43 52° NNW 18:23:02 26° NE visible
08 Dec 1.9 18:39:54 10° WNW 18:42:19 24° NNW 18:42:38 24° N visible
09 Dec 3.0 19:01:09 10° NW 19:02:11 15° NNW 19:02:11 15° NNW visible
